Location: Briarwood
(39.0812°N, 76.8511°W)
Time: 21:50:29
(UTC+00:00)

Cosmos 2219 Rocket - Pass Details

Date: 10 September 2024
Orbit: 827 x 845 km, 71.0° (Epoch: 06 October)

Event Time Altitude Azimuth Distance (km) Brightness Sun altitude
Rises 23:39:08 0° 198° (SSW) 3,388 5.5 -4.0°
Reaches altitude 10° 23:41:34 10° 198° (SSW) 2,458 4.7 -4.4°
Maximum altitude 23:47:13 82° 112° (ESE) 858 2.2 -5.5°
Drops below altitude 10° 23:52:54 10° 25° (NNE) 2,472 4.5 -6.6°
Sets 23:55:21 0° 24° (NNE) 3,409 5.2 -7.1°
